User: anonymous   Login
Location: Erlach
(47.0430°N, 7.0996°E)
Time: 16:07:00
(UTC+00:00)
Language:

Iridium 2 - Orbit

View from above orbital plane
View from above orbital plane
View from above satellite
View from above satellite

Ground track
Ground track

The orbit data is extracted from the following two-line orbital elements,

1 25527U 98066A   20227.85169469  .00000688  00000-0  31292-4 0  9994
2 25527  85.5266  69.4151 0009812 146.4493 213.7372 15.18687583193002
Epoch (UTC): 14 August 2020 20:26:26
Eccentricity: 0.0009812
inclination: 85.5266°
perigee height: 503 km
apogee height: 516 km
right ascension of ascending node: 69.4151°
argument of perigee: 146.4493°
revolutions per day: 15.18687583
mean anomaly at epoch: 213.7372°
orbit number at epoch: 19300

The dashed part of the orbit path shows where the satellite is in the earth's shadow,  

DLR